Wind_Speed
25 25 25 26 26 27 27 28 28 28 28 28 28 28 28 30 31 32 32 33 32 33 32 32 31 31 30 29 29 28 29 29 28 29 29 29 29 28 27 26 27 27 27
23 24 25 25 26 26 27 28 28 28 27 27 28 29 29 30 31 32 32 32 33 33 33 33 32 32 32 31 30 29 29 29 28 29 30 30 29 29 28 28 29 28 28
22 23 25 26 27 27 27 28 28 29 28 27 28 28 29 30 30 31 32 32 33 33 32 32 32 32 31 31 30 29 30 31 30 30 30 30 29 29 29 29 30 29 29
23 24 24 25 26 27 27 27 27 27 27 27 28 28 29 30 30 31 32 32 33 33 33 33 32 32 31 31 31 30 30 31 31 31 31 30 30 30 30 29 30 30 30
22 22 23 24 25 26 27 27 28 28 28 28 29 29 29 30 31 31 32 33 33 33 33 33 34 33 32 31 32 32 31 30 31 31 31 31 30 30 30 30 30 30 30
21 22 22 23 24 25 26 27 28 28 29 30 30 30 30 30 30 31 31 31 32 32 33 32 32 32 30 29 30 30 30 31 30 30 30 30 31 31 32 32 32 31 31
21 22 23 23 24 25 26 26 27 28 29 30 30 31 32 32 31 31 31 30 30 30 30 31 31 31 31 31 30 29 29 30 30 30 30 30 31 32 32 33 32 32 32
21 22 22 23 24 25 25 25 26 27 28 29 30 31 31 31 31 31 30 30 30 30 29 29 29 29 30 30 30 30 30 30 30 31 30 30 31 32 32 32 33 32 33
22 22 22 23 23 24 25 26 27 28 29 29 29 30 30 30 31 30 30 30 29 29 30 29 28 28 27 28 29 29 28 28 30 30 30 30 31 32 31 33 33 33 32
22 23 23 24 25 25 26 27 27 27 28 28 29 29 29 29 29 28 29 29 29 29 28 28 28 28 28 26 27 28 28 28 29 30 30 31 31 30 30 31 32 32 31
23 23 24 25 26 26 26 26 26 26 25 25 26 27 28 27 27 26 27 28 27 27 27 27 28 27 26 26 26 26 27 29 29 29 30 31 30 29 29 30 30 31 32
24 25 25 26 25 25 25 25 25 25 25 24 25 25 26 26 25 25 25 26 26 25 25 26 26 26 25 25 25 26 25 26 27 28 29 29 29 28 29 29 29 29 30
25 25 26 26 25 25 25 25 25 25 24 24 24 25 25 24 24 24 23 24 24 24 24 25 25 25 25 25 25 25 25 25 26 26 26 26 26 27 27 28 27 27 28
26 26 27 27 27 26 26 26 25 25 24 24 24 24 23 23 22 22 22 23 23 23 23 24 25 25 24 24 24 24 24 25 25 25 26 26 25 26 26 26 26 27 27
27 27 27 27 26 26 26 25 25 24 24 23 23 22 22 21 21 21 21 21 21 20 21 23 23 24 24 23 23 23 23 23 24 25 25 24 24 24 25 25 26 27 27
27 27 27 27 26 26 25 25 24 23 22 22 22 21 20 19 20 20 20 20 20 20 20 20 21 21 22 22 22 21 22 22 21 21 22 22 22 23 24 25 26 28 29
27 27 27 26 25 24 23 22 21 21 20 20 20 20 19 19 19 20 21 20 20 20 20 19 20 21 20 19 19 18 19 19 19 20 21 22 22 23 24 25 27 28 28
26 26 25 24 23 22 20 19 18 18 17 17 17 18 18 17 17 17 18 18 18 18 18 19 19 19 18 18 19 18 18 18 19 20 20 21 21 22 24 25 25 26 27
25 24 23 21 20 19 18 16 15 15 15 14 15 15 15 15 15 16 16 18 18 18 19 19 18 18 17 17 17 17 17 18 19 20 20 20 21 22 22 23 24 25 25
23 21 20 18 17 15 14 13 12 11 12 12 13 14 13 13 14 15 15 15 15 16 16 16 16 16 16 15 16 16 17 17 18 18 19 19 20 21 22 23 23 23 23
19 18 16 15 13 12 10 9 8 8 8 9 10 11 12 12 13 13 14 13 13 12 13 12 12 13 14 15 15 15 16 16 17 18 18 18 19 20 21 21 21 21 22
16 14 12 10 9 8 7 6 5 6 6 7 8 10 10 11 11 11 12 12 11 10 10 11 11 11 12 12 13 13 14 15 15 16 16 17 17 18 18 19 18 18 18
12 10 8 7 6 5 5 4 3 4 5 6 7 9 9 9 8 9 9 9 9 9 8 8 8 8 8 8 9 10 11 11 12 12 13 14 14 15 15 15 15 15 14
8 6 5 3 2 2 3 3 3 3 5 6 7 8 8 8 8 8 7 7 7 7 7 6 5 5 6 6 7 8 8 9 10 11 12 12 12 12 12 12 12 12 12
5 3 2 2 2 2 3 3 4 5 5 6 8 8 8 8 7 7 7 6 5 5 5 5 4 4 5 5 6 6 7 8 8 9 9 9 9 9 9 9 9 9 10
4 3 3 3 3 3 4 5 6 6 7 8 8 8 9 8 8 7 7 6 5 4 3 3 3 2 2 3 3 4 4 5 5 6 6 6 6 6 7 7 8 8 9
Wind_Direction
265 265 266 267 267 268 268 269 269 268 267 266 263 263 263 262 262 261 261 257 257 258 259 258 257 259 257 254 254 254 251 251 250 251 252 251 250 252 251 250 251 251 254
267 267 266 266 266 266 267 269 269 268 267 265 265 263 263 263 262 262 261 259 258 259 259 258 257 259 257 254 254 252 249 248 252 253 250 248 247 249 250 251 251 252 254
267 269 268 266 266 266 266 266 267 267 266 266 266 263 263 262 263 261 260 260 259 259 258 257 258 259 260 255 253 250 249 249 249 250 250 247 248 250 250 251 251 252 254
270 272 271 267 265 265 266 267 266 265 265 266 266 262 263 262 262 261 259 259 258 258 257 257 257 258 257 252 250 250 251 248 248 249 249 246 248 249 251 252 254 254 255
273 274 273 270 267 266 266 267 267 265 265 266 265 263 263 263 262 262 261 259 257 257 256 257 256 256 254 250 248 247 247 246 247 247 247 246 248 251 252 254 256 255 256
276 277 276 273 270 269 269 269 269 268 266 265 265 264 264 264 262 262 262 261 258 257 257 257 256 252 249 248 247 246 246 243 244 245 246 247 248 250 252 252 255 257 258
280 280 278 276 273 271 271 271 271 269 267 266 266 264 264 264 262 262 261 259 256 256 255 254 253 251 249 246 245 246 243 242 243 244 245 246 248 249 252 253 255 257 258
281 281 279 277 275 274 273 273 273 271 269 268 266 264 265 264 262 261 258 257 256 254 253 252 251 249 248 246 247 246 244 242 242 244 246 247 247 249 251 252 253 258 260
282 283 282 280 279 278 276 274 273 273 271 269 267 265 264 263 262 259 256 254 253 252 251 249 247 246 246 246 245 244 243 242 242 243 244 244 246 247 249 252 254 258 260
284 283 283 282 283 282 279 278 275 275 274 270 267 266 266 264 260 259 255 253 251 251 248 246 245 245 244 242 243 244 242 239 240 241 241 243 245 243 246 251 254 258 258
286 285 284 284 284 283 281 278 277 277 275 271 268 264 263 262 259 257 255 253 251 250 248 246 245 245 242 242 242 242 240 238 239 240 240 241 243 246 249 251 254 257 260
289 288 287 287 286 284 282 279 279 278 276 272 270 265 262 260 259 257 254 250 248 247 246 246 245 244 245 243 243 242 242 240 239 239 241 243 246 249 252 254 257 259 261
292 291 290 288 287 286 283 281 279 278 276 272 268 265 261 259 257 256 251 247 244 245 245 244 243 243 245 245 245 243 242 241 242 243 244 247 249 252 254 256 258 259 262
295 294 293 290 288 286 284 283 281 279 276 271 267 263 260 257 254 252 247 245 244 244 243 243 244 243 244 244 244 245 245 244 245 247 249 252 253 253 254 256 259 262 265
297 296 295 292 289 287 285 282 280 278 274 269 266 261 256 251 248 245 243 244 243 241 241 244 244 243 243 243 243 244 245 246 248 249 251 252 253 255 257 260 264 266 268
299 298 296 294 291 288 285 282 279 276 271 265 261 255 253 248 243 241 238 240 240 241 242 247 244 244 245 244 244 245 245 247 249 249 251 253 254 256 259 262 265 268 271
301 299 297 295 292 289 285 281 276 273 266 260 256 252 251 246 239 236 235 237 240 241 242 244 243 245 245 244 242 241 243 246 251 253 255 256 258 260 264 267 270 272 275
302 300 297 295 292 287 284 279 275 270 264 255 250 248 246 242 233 231 234 236 241 243 240 240 244 246 247 246 241 239 244 246 251 253 257 258 260 264 267 269 274 277 280
302 299 297 294 291 286 281 278 273 267 261 252 240 240 239 235 230 228 232 236 240 243 244 244 243 244 245 245 242 241 246 250 253 257 260 262 266 272 276 279 280 281 283
303 300 298 294 289 285 280 276 271 260 253 244 235 232 228 226 225 225 231 237 238 239 245 246 243 241 242 244 245 248 255 259 263 266 268 270 274 278 280 282 283 284 287
304 302 299 293 286 280 278 274 261 251 244 231 223 220 223 221 221 219 225 230 233 234 237 237 235 240 243 249 254 258 259 263 267 271 274 276 279 281 282 282 284 287 289
306 303 298 291 283 273 268 258 251 242 227 215 211 213 213 214 212 214 213 218 224 225 229 236 238 245 249 250 253 257 262 267 271 274 277 280 282 284 284 286 288 290 291
309 305 300 292 279 265 252 238 234 216 206 197 197 197 199 202 205 201 200 210 209 208 218 229 235 240 245 249 254 261 267 270 274 277 281 284 286 287 288 290 292 293 294
318 312 308 312 286 236 212 190 172 167 167 173 175 177 179 182 183 184 189 194 199 205 213 219 229 238 249 257 264 271 275 280 282 284 286 287 288 290 291 293 294 296 298
339 345 6 35 83 116 142 159 158 153 150 153 163 165 164 166 168 168 171 177 184 194 206 217 235 246 258 269 278 284 286 289 291 292 293 294 297 300 302 303 303 304 305
22 43 65 85 92 116 131 137 142 142 141 143 149 156 158 159 158 157 160 160 162 170 183 196 210 236 268 278 285 292 297 297 297 300 304 307 309 309 309 310 311 312 312
Height
5836 5837 5837 5837 5837 5836 5836 5836 5836 5836 5836 5836 5836 5836 5836 5836 5836 5837 5837 5838 5839 5841 5842 5843 5844 5845 5846 5847 5848 5849 5850 5852 5854 5855 5857 5858 5859 5861 5862 5863 5864 5865 5866
5831 5831 5831 5830 5830 5830 5830 5829 5829 5829 5829 5829 5829 5829 5829 5829 5829 5830 5830 5831 5832 5833 5834 5835 5837 5838 5839 5840 5842 5843 5844 5846 5847 5849 5850 5852 5854 5855 5856 5857 5859 5860 5860
5825 5825 5824 5824 5823 5823 5823 5823 5822 5822 5822 5822 5822 5822 5822 5822 5822 5822 5822 5823 5824 5825 5826 5827 5829 5830 5831 5832 5834 5836 5837 5839 5841 5842 5844 5846 5847 5849 5850 5851 5852 5853 5854
5819 5818 5817 5817 5816 5816 5815 5815 5815 5814 5814 5814 5814 5814 5814 5814 5814 5814 5814 5815 5816 5817 5818 5820 5821 5823 5824 5825 5827 5829 5830 5832 5834 5836 5838 5840 5841 5842 5843 5845 5846 5847 5848
5813 5811 5810 5810 5809 5809 5808 5808 5807 5807 5807 5807 5807 5807 5807 5807 5807 5807 5807 5807 5808 5809 5810 5812 5813 5814 5816 5818 5820 5821 5823 5825 5827 5829 5830 5832 5834 5836 5837 5839 5840 5840 5841
5806 5805 5804 5803 5802 5802 5801 5800 5800 5800 5800 5800 5800 5800 5799 5799 5799 5799 5800 5800 5801 5802 5803 5804 5805 5807 5808 5810 5812 5814 5815 5817 5820 5822 5824 5825 5827 5829 5831 5832 5833 5833 5834
5800 5799 5798 5796 5796 5795 5794 5793 5793 5792 5792 5792 5792 5792 5792 5792 5792 5792 5792 5792 5793 5794 5795 5796 5798 5799 5801 5803 5805 5806 5808 5810 5812 5814 5817 5819 5820 5822 5824 5824 5825 5826 5827
5794 5793 5791 5790 5789 5788 5787 5786 5786 5785 5784 5784 5784 5784 5784 5784 5784 5784 5785 5785 5786 5787 5788 5789 5790 5792 5794 5795 5797 5800 5802 5803 5806 5807 5809 5811 5813 5815 5816 5817 5818 5819 5819
5789 5787 5785 5784 5782 5781 5780 5779 5778 5777 5777 5776 5776 5776 5776 5776 5776 5777 5777 5778 5778 5779 5781 5782 5783 5785 5787 5788 5790 5792 5794 5796 5799 5801 5803 5804 5806 5807 5809 5810 5811 5812 5812
5783 5781 5779 5778 5776 5774 5773 5772 5771 5770 5768 5768 5768 5768 5768 5769 5769 5769 5769 5770 5772 5773 5774 5775 5778 5779 5781 5782 5784 5786 5787 5789 5792 5794 5796 5798 5799 5800 5801 5803 5804 5804 5804
5777 5775 5773 5771 5769 5768 5766 5764 5763 5762 5761 5760 5760 5761 5761 5761 5761 5762 5763 5764 5765 5766 5768 5769 5771 5773 5775 5776 5777 5779 5781 5783 5785 5787 5789 5791 5792 5793 5794 5795 5796 5796 5797
5771 5768 5766 5764 5762 5760 5759 5758 5756 5755 5754 5753 5753 5753 5754 5754 5754 5755 5756 5757 5759 5761 5762 5764 5766 5767 5769 5770 5772 5773 5775 5777 5779 5781 5783 5784 5785 5787 5788 5789 5789 5790 5790
5764 5761 5759 5757 5755 5753 5752 5750 5749 5748 5747 5746 5746 5746 5747 5747 5748 5749 5750 5751 5753 5755 5757 5759 5761 5762 5764 5765 5767 5768 5770 5772 5774 5776 5777 5778 5780 5781 5782 5782 5783 5783 5783
5757 5754 5752 5750 5748 5746 5744 5743 5742 5741 5740 5739 5739 5739 5740 5740 5741 5743 5744 5746 5748 5750 5752 5754 5755 5757 5759 5760 5762 5763 5765 5767 5768 5770 5771 5772 5774 5775 5776 5776 5777 5777 5777
5750 5747 5744 5742 5740 5738 5737 5735 5734 5733 5733 5732 5732 5733 5733 5734 5736 5737 5739 5741 5743 5745 5747 5749 5750 5752 5753 5755 5756 5758 5760 5762 5763 5764 5765 5767 5768 5769 5770 5771 5771 5771 5771
5742 5739 5736 5734 5732 5730 5729 5727 5726 5726 5725 5725 5726 5726 5728 5729 5730 5732 5734 5736 5738 5740 5742 5744 5745 5747 5748 5750 5752 5753 5755 5756 5758 5759 5760 5761 5762 5763 5764 5765 5765 5765 5764
5735 5732 5729 5726 5724 5723 5721 5720 5719 5719 5718 5719 5720 5721 5722 5724 5725 5727 5730 5732 5734 5736 5737 5739 5741 5742 5744 5745 5747 5749 5750 5752 5753 5754 5755 5756 5757 5758 5758 5758 5758 5758 5757
5728 5724 5721 5719 5717 5716 5714 5714 5713 5713 5712 5713 5714 5716 5717 5719 5721 5723 5726 5728 5730 5732 5734 5735 5737 5738 5740 5741 5743 5744 5746 5747 5748 5750 5750 5751 5752 5752 5753 5752 5752 5751 5750
5720 5717 5715 5712 5711 5709 5709 5708 5708 5707 5708 5708 5710 5711 5713 5715 5717 5719 5722 5724 5726 5728 5730 5731 5733 5734 5736 5737 5739 5741 5742 5743 5744 5745 5746 5746 5747 5747 5747 5747 5746 5745 5744
5714 5711 5709 5707 5705 5704 5704 5703 5703 5703 5704 5704 5706 5708 5710 5712 5714 5716 5718 5720 5722 5725 5726 5728 5729 5730 5732 5734 5735 5737 5738 5739 5740 5741 5741 5741 5741 5741 5741 5741 5740 5739 5738
5708 5705 5703 5702 5701 5700 5700 5699 5699 5700 5701 5702 5703 5705 5707 5709 5711 5713 5716 5718 5720 5722 5723 5725 5726 5728 5729 5730 5732 5733 5734 5735 5735 5736 5736 5736 5736 5736 5736 5735 5734 5733 5732
5703 5701 5699 5698 5697 5697 5697 5697 5697 5698 5698 5700 5701 5703 5705 5707 5709 5711 5713 5716 5718 5719 5721 5723 5724 5725 5726 5727 5728 5730 5730 5731 5731 5732 5731 5731 5731 5731 5730 5730 5729 5728 5726
5700 5698 5696 5695 5695 5695 5695 5696 5696 5696 5697 5699 5700 5702 5704 5706 5708 5710 5712 5714 5716 5718 5719 5721 5722 5723 5724 5725 5726 5726 5727 5727 5728 5727 5727 5727 5727 5726 5726 5725 5724 5723 5722
5697 5696 5695 5694 5694 5694 5694 5695 5696 5696 5697 5698 5700 5701 5703 5705 5707 5709 5711 5713 5715 5716 5718 5719 5720 5721 5722 5723 5723 5724 5724 5724 5724 5724 5724 5723 5723 5723 5722 5721 5721 5720 5719
5696 5695 5695 5694 5694 5694 5694 5695 5696 5696 5697 5698 5700 5702 5704 5706 5708 5709 5711 5713 5714 5716 5717 5718 5719 5720 5720 5721 5721 5721 5722 5722 5721 5721 5721 5720 5720 5720 5719 5718 5718 5717 5716
5696 5696 5695 5695 5695 5694 5695 5695 5696 5697 5698 5700 5701 5703 5705 5706 5708 5710 5711 5713 5714 5716 5717 5718 5718 5719 5719 5719 5720 5720 5720 5720 5719 5719 5719 5718 5718 5718 5717 5716 5716 5715 5714